AirNav   BOSE A20 Aviation Headset
 
 342 users online  

73TA Reynolds Ranch Airport
Bayview, Texas, USA

GOING TO BAYVIEW?


FAA INFORMATION EFFECTIVE 26 APRIL 2018

Location

FAA Identifier: 73TA
Lat/Long: 26-09-30.3300N / 097-23-19.2800W
26-09.505500N / 097-23.321333W
26.1584250 / -97.3886889
(estimated)
Elevation: 24 ft. / 7 m (estimated)
From city: 2 miles NNE of BAYVIEW, TX
Time zone: UTC -5 (UTC -6 during Standard Time)
Zip code: 78566

Airport Operations

Airport use: Private use. Permission required prior to landing
Activation date: 01/2017
Control tower: no
ARTCC: HOUSTON CENTER
FSS: SAN ANGELO FLIGHT SERVICE STATION
Attendance: 
Segmented circle: no

Airport Communications

WX ASOS at PIL (2.4 nm E): 118.525 (956-233-5740)
WX ASOS at HRL (15 nm W): PHONE 956-428-7297
WX ASOS at BRO (15 nm S): PHONE 956-546-4540

Nearby radio navigation aids

VOR radial/distance  VOR name  Freq  Var
BROr348/14.1BROWNSVILLE VORTAC116.3009E
HRLr102/14.8HARLINGEN VOR/DME109.2005E
MAMr010/24.4MATAMOROS VOR/DME114.3007E

 
NDB name  Hdg/Dist  Freq  Var  ID
DEPOO029/12.339303EBR -... .-.

Airport Services

Runway Information

Runway 2/20

Dimensions: 2000 x 50 ft. / 610 x 15 m
Surface: turf
RUNWAY 2  RUNWAY 20
Traffic pattern: leftleft

Airport Ownership and Management from official FAA records

Ownership: Privately-owned
Owner: STEPHEN REYNOLDS
27677 LOOP ROAD
BAYVIEW, TX 78566
Phone 956-330-3082
ECHOHOTEL@AOL.COM
Manager: STEPHEN REYNOLDS
27677 LOOP ROAD
BAYVIEW, TX 78566
Phone 956-330-3082

Instrument Procedures

There are no published instrument procedures at 73TA.

Some nearby airports with instrument procedures:

KPIL - Port Isabel-Cameron County Airport (2 nm E)
KHRL - Valley International Airport (15 nm W)
KBRO - Brownsville/South Padre Island International Airport (15 nm S)
T65 - Mid Valley Airport (32 nm W)
KEBG - South Texas International Airport at Edinburg (43 nm NW)
 
Loc | Ops | Rwys | IFR | FBO | Links
Com | Nav | Svcs | Stats | Notes

AirNav Hotels Sweepstakes
 
Aerial photo
No photo
 
Airport distance calculator
Flying to Reynolds Ranch Airport? Find the distance to fly.

From to 73TA

Sunrise and sunset
Times for 23-May-2018
 Local
(UTC-5)
 Zulu
(UTC)
Morning civil twilight06:1511:15
Sunrise06:4111:41
Sunset20:1201:12
Evening civil twilight20:3701:37

Current date and time
Zulu (UTC)  23-May-2018 09:21:22
Local (UTC-5)  23-May-2018 04:21:22
 
METAR
KPIL 
3nm E 
230853Z AUTO 13006KT 10SM CLR 26/23 A2991 RMK AO2 SLP128 T02610228 58005
KHRL 
15nm W 
230852Z AUTO 08004KT 7SM CLR 23/23 A2991 RMK AO2 SLP129 T02280228 58006
KBRO 
16nm S 
230853Z AUTO 10004KT 10SM CLR 24/23 A2992 RMK AO2 SLP130 T02440233 58006
TAF
KHRL 
15nm W 
230520Z 2306/2406 11005KT P6SM FEW020 FM231500 12013KT P6SM SCT050 FM240200 13005KT P6SM FEW015
KBRO 
16nm S 
230520Z 2306/2406 13005KT P6SM FEW015 FM231500 13012KT P6SM SCT050 FM240200 13005KT P6SM FEW015
NOTAMs
Click for the latest NOTAMs
NOTAMs are issued by the DoD/FAA and will open in a separate window not controlled by AirNav.

 

 
 

Would you like to see your business listed on this page?

 If your business provides an interesting product or service to pilots, flight crews, aircraft, or users of the Reynolds Ranch Airport, you should consider listing it here.  To start the listing process, click on the button below
 
Add a business
 

Other Pages about Reynolds Ranch Airport

Update a link
 
Copyright © AirNav, LLC. All rights reserved. Privacy Policy  Contact